Simultaneous Nadir Overpasses (SNOs) Predictions

Prediction of SNOs between NOAA-19 and METOP-C Satellite Orbit:

Table of predicted SNOs for the next 14.0 days since TLE Epoch: 10/31/2020
Index Date (NOAA-19) Time (NOAA-19) Lat,Lon (NOAA-19) SZA (NOAA-19 ) Date (METOP-C) Time (METOP-C) Lat,Lon (METOP-C) SZA (METOP-C ) Distance(km) Time Diff (sec)
1 11/07/2020 06:41:34 80.23, 104.75 97.81 11/07/2020 06:42:39 80.25, 104.78 97.85 1.88 65
2 11/07/2020 07:32:38 -80.22, -87.90 82.18 11/07/2020 07:33:21 -80.24, -88.00 82.16 2.34 43
3 11/07/2020 08:23:34 80.22, 79.41 97.83 11/07/2020 08:24:01 80.24, 79.33 97.85 2.40 27
4 11/07/2020 09:14:39 -80.23,-113.57 82.17 11/07/2020 09:14:43 -80.23,-113.45 82.16 2.28 4
5 11/07/2020 10:05:35 80.23, 53.74 97.85 11/07/2020 10:05:23 80.23, 53.87 97.85 2.50 12
6 11/07/2020 10:56:39 -80.22,-138.90 82.14 11/07/2020 10:56:05 -80.22,-138.91 82.16 0.69 34
7 11/07/2020 11:47:35 80.22, 28.40 97.87 11/07/2020 11:46:45 80.22, 28.42 97.85 0.57 50
